DW6120 Weather Reports


Display with metric or nautical units.
time (UTC)temp
F
wind
direction
speed
MPH
gust
MPH
rain 1hr
in
rain 24hr
in
rain mn
in
humidity
%
barometer
mb
20260509093021 53 115 1.0 4.0 0.00 0.00 0.00 48 1011.2
20260509091523 54 120 1.0 3.0 0.00 0.00 0.00 49 1011.0
20260509090013 55 119 2.0 4.0 0.00 0.00 0.00 45 1010.9
20260509084510 57 122 1.0 4.0 0.00 0.00 0.00 42 1010.6
20260509083008 58 103 1.0 3.0 0.00 0.00 0.00 39 1010.4
20260509081521 59 103 0.0 5.0 0.00 0.00 0.00 38 1010.4
20260509080009 59 59 4.0 9.0 0.00 0.00 0.00 37 1010.3
20260509074508 57 87 7.0 9.0 0.00 0.00 0.00 40 1010.1
20260509073015 56 98 4.0 7.0 0.00 0.00 0.00 41 1010.4
20260509071502 57 145 4.0 6.0 0.00 0.00 0.00 39 1010.0
20260509070106 58 105 6.0 8.0 0.00 0.00 0.00 37 1009.6
20260509064602 58 89 4.0 9.0 0.00 0.00 0.00 37 1009.4
20260509063111 58 90 2.0 5.0 0.00 0.00 0.00 37 1009.6
20260509061616 59 91 3.0 8.0 0.00 0.00 0.00 36 1009.6
20260509060059 59 123 3.0 8.0 0.00 0.00 0.00 36 1009.6
20260509054550 60 87 3.0 6.0 0.00 0.00 0.00 34 1009.5
20260509053050 61 79 5.0 9.0 0.00 0.00 0.00 33 1009.2
20260509051550 60 98 4.0 8.0 0.00 0.00 0.00 33 1009.0
20260509050049 61 136 3.0 7.0 0.00 0.00 0.00 33 1009.1
20260509044549 62 94 1.0 3.0 0.00 0.00 0.00 32 1009.2
20260509043050 62 62 3.0 6.0 0.00 0.00 0.00 33 1008.9
20260509041548 62 95 5.0 8.0 0.00 0.00 0.00 32 1008.8
20260509040048 62 98 4.0 7.0 0.00 0.00 0.00 32 1008.7
20260509034547 62 92 5.0 9.0 0.00 0.00 0.00 32 1008.7
20260509033047 61 84 1.0 5.0 0.00 0.00 0.00 35 1008.5
20260509031555 62 83 3.0 9.0 0.00 0.00 0.00 33 1008.4
20260509030057 63 74 5.0 8.0 0.00 0.00 0.00 33 1008.4
20260509024556 61 148 3.0 8.0 0.00 0.00 0.00 33 1008.4
20260509023054 64 90 3.0 7.0 0.00 0.00 0.00 34 1008.4
20260509021551 66 47 8.0 11.0 0.00 0.00 0.00 31 1008.3
20260509020055 69 75 4.0 7.0 0.00 0.00 0.00 29 1008.3
20260509014551 71 22 0.0 6.0 0.00 0.00 0.00 25 1008.3
20260509013052 72 22 2.0 6.0 0.00 0.00 0.00 25 1008.5
20260509011545 72 196 1.0 3.0 0.00 0.00 0.00 25 1008.7
20260509010045 72 22 2.0 5.0 0.00 0.00 0.00 25 1008.8
20260509004542 72 333 1.0 4.0 0.00 0.00 0.00 26 1008.9
20260509003044 72 334 4.0 7.0 0.00 0.00 0.00 26 1009.1
20260509001537 71 11 3.0 7.0 0.00 0.00 0.00 25 1009.1
20260509000036 71 11 3.0 7.0 0.00 0.00 0.00 26 1009.2
20260508234535 71 313 4.0 11.0 0.00 0.00 0.00 27 1009.3
20260508233036 71 280 1.0 11.0 0.00 0.00 0.00 25 1009.3
20260508231535 71 53 7.0 11.0 0.00 0.00 0.00 26 1009.4
20260508230033 70 26 5.0 17.0 0.00 0.00 0.00 26 1009.7
20260508224533 71 5 5.0 11.0 0.00 0.00 0.00 27 1009.8
20260508223036 71 10 4.0 9.0 0.00 0.00 0.00 26 1010.1
20260508221529 71 276 1.0 13.0 0.00 0.00 0.00 27 1010.2
20260508220030 70 331 5.0 11.0 0.00 0.00 0.00 27 1010.3
20260508214527 70 32 6.0 12.0 0.00 0.00 0.00 28 1010.5
20260508213027 70 313 4.0 15.0 0.00 0.00 0.00 26 1010.6
20260508211527 69 25 5.0 13.0 0.00 0.00 0.00 29 1010.8
20260508210023 69 24 5.0 12.0 0.00 0.00 0.00 28 1010.9
20260508204523 68 360 4.0 13.0 0.00 0.00 0.00 27 1011.1
20260508203021 69 347 7.0 14.0 0.00 0.00 0.00 29 1011.3
20260508201526 67 17 5.0 12.0 0.00 0.00 0.00 31 1011.4
20260508200023 67 292 10.0 14.0 0.00 0.00 0.00 29 1011.5
20260508194520 67 338 7.0 15.0 0.00 0.00 0.00 29 1011.6
20260508193020 67 355 5.0 12.0 0.00 0.00 0.00 29 1011.7
20260508191524 67 348 4.0 10.0 0.00 0.00 0.00 32 1011.9
20260508190028 66 331 6.0 14.0 0.00 0.00 0.00 31 1012.1
20260508184518 66 336 3.0 12.0 0.00 0.00 0.00 31 1012.3
20260508183017 66 311 6.0 12.0 0.00 0.00 0.00 32 1012.2
20260508181528 65 331 6.0 13.0 0.00 0.00 0.00 36 1012.3
20260508180018 65 347 3.0 11.0 0.00 0.00 0.00 37 1012.4
20260508174517 65 335 5.0 11.0 0.00 0.00 0.00 37 1012.5
20260508173021 65 304 7.0 11.0 0.00 0.00 0.00 34 1012.4
20260508171523 65 32 2.0 8.0 0.00 0.00 0.00 32 1012.4
20260508170013 65 16 0.0 9.0 0.00 0.00 0.00 32 1012.2
20260508164513 66 292 3.0 9.0 0.00 0.00 0.00 32 1012.1
20260508163017 66 22 0.0 10.0 0.00 0.00 0.00 31 1012.1
20260508161514 64 304 4.0 9.0 0.00 0.00 0.00 31 1012.0
20260508160013 66 325 2.0 6.0 0.00 0.00 0.00 30 1011.9
20260508154509 64 236 1.0 3.0 0.00 0.00 0.00 37 1011.9
20260508153007 63 174 0.0 2.0 0.00 0.00 0.00 38 1011.8
20260508151505 62 138 0.0 3.0 0.00 0.00 0.00 42 1011.7
20260508150100 61 138 0.0 1.0 0.00 0.00 0.00 41 1011.8
20260508143102 56 138 2.0 5.0 0.00 0.00 0.00 48 1011.8
20260508141614 52 110 2.0 4.0 0.00 0.00 0.00 53 1011.6
20260508140052 51 79 2.0 4.0 0.00 0.00 0.00 53 1011.5
20260508134559 52 140 0.0 4.0 0.00 0.00 0.00 53 1011.5
20260508133046 52 84 1.0 5.0 0.00 0.00 0.00 50 1011.1
20260508131547 53 150 2.0 4.0 0.00 0.00 0.00 48 1011.2
20260508130045 53 122 2.0 8.0 0.00 0.00 0.00 45 1011.0
20260508124550 53 88 0.0 9.0 0.00 0.00 0.00 45 1010.7
20260508123048 53 42 1.0 9.0 0.00 0.00 0.00 46 1010.7
20260508121541 53 94 5.0 7.0 0.00 0.00 0.00 45 1010.6
20260508120039 52 103 5.0 7.0 0.00 0.00 0.00 46 1010.6
20260508114538 53 90 3.0 5.0 0.00 0.00 0.00 47 1010.7
20260508113047 54 84 1.0 6.0 0.00 0.00 0.00 46 1010.5
20260508111537 53 146 1.0 4.0 0.00 0.00 0.00 46 1010.5
20260508110036 55 88 2.0 5.0 0.00 0.00 0.00 46 1010.4
20260508104536 54 74 2.0 7.0 0.00 0.00 0.00 43 1010.3
20260508103038 54 140 3.0 5.0 0.00 0.00 0.00 47 1010.4
20260508101532 56 71 1.0 4.0 0.00 0.00 0.00 44 1010.3
20260508100027 56 68 0.0 8.0 0.00 0.00 0.00 44 1010.3
20260508094528 56 106 2.0 4.0 0.00 0.00 0.00 44 1010.2